Weather past 2 weeks in Mamoutzou, Mayotte

Now
79 °F

Passing clouds.


Feels Like: 83 °F
Forecast: 79 / 84 °F
Wind: 3 mph from Southwest

Location: Dzaoudzi / Pamanzi Mayotte


UV Index: 7 (High)

Visibility: N/A


Pressure: 29.95 "Hg

Humidity: 94%

Dew point: 77 °F

Location of MamoutzouLocation

Historic Weather in Mamoutzou

°F

Mamoutzou temperature yesterday

Maximum temperature yesterday: 88 °F (at 11:00 AM)
Minimum temperature yesterday: 77 °F (at 3:00 AM)
Average temperature yesterday: 81 °F

Past Weeks' High & Low Weather Summary

 TemperatureHumidityPressure
High88 °F (Apr 15, 12:00 PM)94% (Apr 10, 6:30 AM)30.01 "Hg (Apr 10, 6:30 AM)
Low75 °F (Apr 10, 9:30 AM)59% (Apr 12, 10:30 AM)29.80 "Hg (Apr 21, 3:34 PM)
Average83 °F75%29.91 "Hg
* Reported Apr 10 6:00 AM — Apr 25 6:30 AM, Mamoutzou, Weather by CustomWeather, © 2014

Note: Actual official high and low records may vary slightly from our data, if they occured in-between our weather recording intervals... More about our weather records

Advertising

Historic Weather Conditions — Data for Previous 24 hours

 ConditionsComfort  
Time TempWeatherWind HumidityBarometerVisibility
6:30 AM
Apr 25
77 °FPassing clouds.No wind94%29.92 "HgN/A
6:00 AM77 °FPassing clouds.1 mph89%29.92 "HgN/A
5:30 AM77 °FClear.2 mph89%29.92 "Hg10 mi
5:00 AM77 °FClear.1 mph89%29.92 "Hg10 mi
4:30 AM77 °FWarm.2 mph89%29.89 "HgN/A
4:00 AM77 °FWarm.2 mph89%29.89 "HgN/A
3:30 AM77 °FWarm.1 mph89%29.89 "HgN/A
3:00 AM77 °FWarm.2 mph89%29.89 "HgN/A
2:30 AM77 °FWarm.2 mph89%29.89 "HgN/A
2:00 AM77 °FWarm.2 mph89%29.89 "HgN/A
1:30 AM77 °FWarm.1 mph89%29.89 "HgN/A
1:00 AM77 °FWarm.No wind89%29.92 "HgN/A
12:00 AM77 °FWarm.No wind89%29.92 "HgN/A
11:30 PM
Apr 24
77 °FWarm.2 mph89%29.92 "HgN/A
11:00 PM77 °FWarm.1 mph89%29.95 "HgN/A
10:30 PM79 °FWarm.1 mph84%29.95 "HgN/A
10:00 PM79 °FWarm.2 mph84%29.95 "HgN/A
9:30 PM79 °FWarm.3 mph84%29.95 "HgN/A
9:00 PM79 °FWarm.3 mph89%29.95 "HgN/A
8:30 PM77 °FWarm.3 mph89%29.95 "HgN/A
8:00 PM77 °FWarm.2 mph89%29.95 "HgN/A
7:30 PM79 °FWarm.No wind84%29.92 "HgN/A
7:00 PM79 °FWarm.2 mph84%29.92 "HgN/A
6:30 PM79 °FWarm.2 mph84%29.92 "HgN/A
6:00 PM81 °FPassing clouds.1 mph84%29.92 "HgN/A
5:30 PM84 °FPassing clouds.1 mph70%29.89 "HgN/A
5:00 PM84 °FPassing clouds.1 mph70%29.89 "HgN/A
4:30 PM82 °FPassing clouds.5 mph74%29.89 "HgN/A
4:00 PM84 °FScattered clouds.3 mph70%29.86 "HgN/A
3:30 PM81 °FScattered clouds.7 mph79%29.86 "HgN/A
3:00 PM79 °FScattered clouds.8 mph84%29.89 "HgN/A
2:30 PM79 °FScattered showers. Broken clouds.9 mph79%29.89 "HgN/A
2:00 PM77 °FThunderstorms. Partly sunny.8 mph89%29.89 "Hg3 mi
1:37 PM77 °FThunderstorms. Partly sunny.12 mph83%29.95 "HgN/A
1:34 PM79 °FThunderstorms. Partly sunny.12 mph79%29.95 "HgN/A
1:00 PM84 °FScattered showers. Partly sunny.8 mph66%29.92 "Hg4 mi
12:34 PM88 °FScattered clouds.6 mph66%29.92 "HgN/A
12:00 PM88 °FScattered clouds.7 mph66%29.95 "HgN/A
11:30 AM86 °FScattered clouds.7 mph66%29.95 "HgN/A
11:00 AM88 °FScattered clouds.7 mph66%29.98 "HgN/A
10:30 AM86 °FPartly sunny.7 mph66%29.98 "HgN/A
10:04 AM86 °FScattered clouds.6 mph70%29.98 "HgN/A
9:30 AM86 °FScattered clouds.2 mph66%29.98 "HgN/A
9:00 AM86 °FPassing clouds.3 mph66%29.98 "HgN/A
8:30 AM84 °FPassing clouds.2 mph70%29.98 "HgN/A
8:00 AM82 °FPartly sunny.2 mph74%29.98 "HgN/A
7:30 AM82 °FScattered clouds.3 mph79%29.95 "HgN/A
7:00 AM81 °FPassing clouds.5 mph84%29.95 "HgN/A
Weather by CustomWeather, © 2014

See weather overview